Tracking 29892 objects as of 21-Nov-2024
HD Live streaming from Space Station
objects crossing your sky now

SL-8 DEB

Track SL-8 DEB now!
10-day predictions


NORAD ID: 21159
Int'l Code: 1991-009W
Perigee: 1,446.0 km
Apogee: 1,674.8 km
Inclination: 73.9 °
Period: 117.2 minutes
Semi major axis: 7931 km
RCS: 0.0656 m2 (small)
Launch date: February 12, 1991
Source: Commonwealth of Independent States (former USSR) (CIS)
Launch site: PLESETSK MISSILE AND SPACE COMPLEX (PKMTR)

Note: This is SATELLITE DEBRIS
Your satellite tracking list
Your tracking list is empty




NASA's NSSDC Master Catalog

Two Line Element Set (TLE):
1 21159U 91009W   24325.38701486  .00000004  00000-0  16196-3 0  9990
2 21159  73.9404 185.2829 0144274 185.5400 232.3731 12.29070940512516
Source of the keplerian elements: AFSPC